EUTE 36A (EUTE W4)

导读

EUTE 36A(曾用名EUTE W4)是欧洲通信卫星组织(Eutelsat)运营的通信卫星,于2000年5月24日发射入轨。它属于Eutelsat卫星系列,部署在地球同步轨道,主要承担欧洲、非洲等区域的电视广播、宽带通信与数据传输服务,是Eutelsat早期全球通信网络布局的重要组成部分,长期为跨区域媒体传输和商业通信提供稳定支持,后续遵循Eutelsat统一命名规则调整为现称谓。

基本信息
目录编号:
26369
目录名称:
EUTE 36A (EUTE W4)
国际标识:
2000-028A
轨道中心:
EARTH
卫星名称:
EUTE 36A (EUTE W4)
卫星全名:
--
卫星状态:
在轨 (已飞行9518 天)
发射日期:
2000-05-24 UTC
国别 :
(EUTE)
星等 :
--
轨道信息
数据来源 国际轨道数据 AOE轨道数据
星历时间 2026-06-15T03:50:00+0800
6小时前
查看轨道信息
2026-06-15T05:00:00+0800
5小时前
查看轨道信息
半长轴 42677.987km 42678.074km
偏心率 0.0009247 0.0008997
轨道倾角 8.583° 8.582°
近地点辐角 273.222° 271.046°
升交点赤经 61.926° 61.925°
平近点角 265.066° 284.471°
近地点 36260.385km 36261.539km
远地点 36339.315km 36338.335km
周期 1462.398分钟 1462.403分钟
每日圈数 0.984684 0.984681
详细信息
使用方式:
暂无
2D轨道图
3D轨道图
轨道高度分析图
轨道倾角分析图
轨道综合分析图
查看轨道综合分析图